Location: Huntsville
(41.2590°N, 111.7678°W)
Time: 00:48:50
(UTC+00:00)

S-56A Canister/Altair - All Passes

Search period start: 03 October 2022 00:00
Search period end: 13 October 2022 00:00
Orbit: 637 x 2496 km, 38.9° (Epoch: 02 October)

Date Brightness Start Highest point End Pass type
(mag) Time Alt. Az. Time Alt. Az. Time Alt. Az.
03 Oct - 05:07:17 10° SSE 05:13:24 14° SE 05:18:55 10° ESE night (unlit)
03 Oct - 07:06:16 10° SSW 07:18:12 38° SSE 07:26:58 10° E visible
03 Oct - 09:11:24 10° WSW 09:23:13 67° SSE 09:30:58 10° E visible
03 Oct - 11:18:18 10° W 11:27:55 75° S 11:34:10 10° ESE visible
03 Oct - 13:24:51 10° W 13:31:36 39° SSW 13:36:29 10° SE daylight
04 Oct - 04:35:41 10° SSE 04:40:19 12° SE 04:44:39 10° ESE night (unlit)
04 Oct - 06:33:00 10° SSW 06:45:03 36° SSE 06:54:12 10° E night (unlit)
04 Oct - 08:37:45 10° WSW 08:50:12 65° SSE 08:58:29 10° E visible
04 Oct - 10:44:41 10° W 10:55:06 77° S 11:01:48 10° E visible
04 Oct - 12:51:28 10° W 12:59:04 46° SSW 13:04:20 10° SE visible
04 Oct - 15:00:13 10° WSW 15:01:27 11° SW 15:02:37 10° SW daylight
05 Oct - 04:05:48 10° SE 04:07:13 10° SE 04:08:37 10° SE night (unlit)
05 Oct - 05:59:50 10° SSW 06:11:52 34° SE 06:21:20 10° E night (unlit)
05 Oct - 08:04:06 10° WSW 08:17:06 62° SSE 08:25:57 10° E visible
05 Oct - 10:11:01 10° W 10:22:13 78° S 10:29:25 10° E visible
05 Oct - 12:18:00 10° W 12:26:28 53° SSW 12:32:09 10° SE visible
05 Oct - 14:25:42 10° WSW 14:29:03 15° SW 14:31:57 10° SSW daylight
06 Oct - 05:26:45 10° SSW 05:38:39 31° SE 05:48:21 10° E visible
06 Oct - 07:30:30 10° SW 07:43:56 60° SSE 07:53:20 10° E visible
06 Oct - 09:37:17 10° W 09:49:15 78° S 09:56:59 10° E visible
06 Oct - 11:44:28 10° W 11:53:46 59° SSW 11:59:54 10° ESE visible
06 Oct - 13:51:51 10° W 13:56:38 19° SW 14:00:28 10° S daylight
07 Oct - 04:53:48 10° SSW 05:05:25 29° SE 05:15:15 10° E visible
07 Oct - 06:56:55 10° SW 07:10:42 57° SSE 07:20:41 10° E night (unlit)
07 Oct - 09:03:32 10° W 09:16:12 78° S 09:24:31 10° E visible
07 Oct - 11:10:51 10° W 11:21:01 64° SSW 11:27:38 10° ESE visible
07 Oct - 13:18:09 10° W 13:24:10 24° SW 13:28:45 10° S daylight
08 Oct - 04:21:01 10° S 04:32:10 26° SE 04:41:59 10° E visible
08 Oct - 06:23:25 10° SW 06:37:25 55° SSE 06:47:57 10° E visible
08 Oct - 08:29:45 10° WSW 08:43:04 77° S 08:51:59 10° E visible
08 Oct - 10:37:11 10° W 10:48:11 69° SSW 10:55:17 10° ESE visible
08 Oct - 12:44:29 10° W 12:51:40 29° SW 12:56:53 10° SSE visible
09 Oct - 03:48:24 10° S 03:58:56 24° SE 04:08:32 10° E visible
09 Oct - 05:50:01 10° SW 06:04:05 52° SSE 06:15:07 10° E visible
09 Oct - 07:55:59 10° WSW 08:09:52 76° S 08:19:25 10° E visible
09 Oct - 10:03:27 10° W 10:15:15 73° SSW 10:22:55 10° ESE visible
09 Oct - 12:10:49 10° W 12:19:06 35° SW 12:24:53 10° SSE visible
10 Oct - 03:16:01 10° S 03:25:44 21° SE 03:34:52 10° E visible
10 Oct - 05:16:41 10° SW 05:30:43 49° SSE 05:42:11 10° E visible
10 Oct - 07:22:15 10° WSW 07:36:35 75° SSE 07:46:46 10° E visible
10 Oct - 09:29:40 10° W 09:42:14 76° S 09:50:28 10° ESE visible
10 Oct - 11:37:08 10° W 11:46:27 41° SSW 11:52:48 10° SE visible
11 Oct - 02:43:54 10° SSE 02:52:33 18° SE 03:00:55 10° E visible
11 Oct - 04:43:28 10° SSW 04:57:20 46° SSE 05:09:11 10° E visible
11 Oct - 06:48:34 10° WSW 07:03:14 73° SSE 07:14:03 10° E visible
11 Oct - 08:55:52 10° W 09:09:07 78° S 09:17:58 10° ESE visible
11 Oct - 11:03:24 10° W 11:13:43 48° SSW 11:20:38 10° SE visible
11 Oct - 13:12:56 10° WSW 13:16:09 13° SW 13:18:59 10° SSW daylight
12 Oct - 02:12:11 10° SSE 02:19:24 15° SE 02:26:33 10° E visible
12 Oct - 04:10:22 10° SSW 04:23:57 42° SE 04:36:03 10° E visible
12 Oct - 06:14:56 10° WSW 06:29:49 71° SSE 06:41:16 10° E visible
12 Oct - 08:22:03 10° W 08:35:55 80° S 08:45:25 10° E visible
12 Oct - 10:29:38 10° W 10:40:54 54° SSW 10:48:24 10° SE visible
12 Oct - 12:38:21 10° W 12:43:41 17° SW 12:48:00 10° SSW visible
